AFR1203 TNCM-TFFF

Flight info

Callsign AFR1203
Flight time 0h 46m
Altitude 33000
Route MODOR2 ELOPO UB520 ANU UA312 PPR/N0376F230 A312 DOM DOM2D
Aircraft A343/H-SDE2E3FGHIJ4J5M1RWXY/LB1D1

Departure

Time 2026-04-26 17:35
Airport Princess Juliana International Airport (TNCM)

Arrival

Time 2026-04-26 18:21
Airport Martinique Aimé Césaire International Airport (TFFF)
Time Latitude Longitude Altitude Speed Heading
2026-04-26 17:00 18.04314 -63.11429 25 ft 0 kts 352°
2026-04-26 17:05 18.04313 -63.11429 25 ft 0 kts 352°
2026-04-26 17:22 18.04312 -63.11429 25 ft 0 kts 352°
2026-04-26 17:26 18.04307 -63.11428 25 ft 4 kts 353°
2026-04-26 17:26 18.04280 -63.11426 29 ft 4 kts
2026-04-26 17:27 18.04254 -63.11429 30 ft 4 kts 16°
2026-04-26 17:27 18.04231 -63.11441 30 ft 4 kts 55°
2026-04-26 17:27 18.04226 -63.11451 29 ft 0 kts 81°
2026-04-26 17:30 18.04236 -63.11386 30 ft 12 kts 81°
2026-04-26 17:30 18.04229 -63.11331 29 ft 11 kts 120°
2026-04-26 17:31 18.04161 -63.11300 29 ft 10 kts 168°
2026-04-26 17:31 18.04096 -63.11289 27 ft 10 kts 172°
2026-04-26 17:31 18.04046 -63.11300 26 ft 5 kts 229°
2026-04-26 17:31 18.04028 -63.11363 28 ft 13 kts 260°
2026-04-26 17:32 18.04010 -63.11478 29 ft 18 kts 262°
2026-04-26 17:32 18.03989 -63.11621 26 ft 21 kts 261°
2026-04-26 17:32 18.03968 -63.11775 30 ft 22 kts 262°
2026-04-26 17:32 18.03985 -63.11916 27 ft 13 kts 286°
2026-04-26 17:33 18.03973 -63.11958 29 ft 4 kts 213°
2026-04-26 17:33 18.03950 -63.11954 30 ft 4 kts 145°
2026-04-26 17:33 18.03949 -63.11940 30 ft 2 kts 86°
2026-04-26 17:34 18.03970 -63.11765 27 ft 51 kts 82°
2026-04-26 17:34 18.04054 -63.11174 30 ft 109 kts 81°
2026-04-26 17:34 18.04197 -63.10214 43 ft 154 kts 83°
2026-04-26 17:34 18.04366 -63.09074 560 ft 159 kts 91°
2026-04-26 17:35 18.03959 -63.08046 1170 ft 157 kts 127°
2026-04-26 17:35 18.03039 -63.07431 1679 ft 172 kts 167°
2026-04-26 17:35 18.01801 -63.07674 2019 ft 195 kts 201°
2026-04-26 17:35 18.00492 -63.08188 2594 ft 209 kts 194°
2026-04-26 17:36 17.99004 -63.08497 3027 ft 235 kts 185°
2026-04-26 17:36 17.97342 -63.08605 3789 ft 247 kts 179°
2026-04-26 17:36 17.95607 -63.08602 4737 ft 252 kts 178°
2026-04-26 17:36 17.93830 -63.08546 5703 ft 255 kts 178°
2026-04-26 17:37 17.92048 -63.08460 6692 ft 259 kts 177°
2026-04-26 17:37 17.90254 -63.08234 7476 ft 268 kts 168°
2026-04-26 17:37 17.88502 -63.07526 8381 ft 274 kts 152°
2026-04-26 17:38 17.85846 -63.04543 10040 ft 292 kts 119°
2026-04-26 17:38 17.85003 -63.02628 10733 ft 301 kts 115°
2026-04-26 17:38 17.84154 -63.00563 11241 ft 317 kts 116°
2026-04-26 17:38 17.83251 -62.98388 11585 ft 337 kts 115°
2026-04-26 17:39 17.82286 -62.96086 12102 ft 350 kts 116°
2026-04-26 17:39 17.81292 -62.93724 12731 ft 357 kts 115°
2026-04-26 17:39 17.80276 -62.91319 13377 ft 364 kts 116°
2026-04-26 17:39 17.79251 -62.88901 14036 ft 370 kts 116°
2026-04-26 17:40 17.78195 -62.86411 14650 ft 375 kts 116°
2026-04-26 17:40 17.77488 -62.84746 15056 ft 379 kts 116°
2026-04-26 17:40 17.76042 -62.81345 15936 ft 385 kts 116°
2026-04-26 17:40 17.74957 -62.78795 16596 ft 390 kts 116°
2026-04-26 17:41 17.73845 -62.76183 17279 ft 394 kts 116°
2026-04-26 17:41 17.72719 -62.73538 17920 ft 399 kts 116°
2026-04-26 17:41 17.71577 -62.70859 18501 ft 405 kts 116°
2026-04-26 17:41 17.70423 -62.68149 19061 ft 409 kts 116°
2026-04-26 17:42 17.69257 -62.65415 19668 ft 412 kts 117°
2026-04-26 17:42 17.68083 -62.62663 20252 ft 415 kts 117°
2026-04-26 17:42 17.66901 -62.59892 20837 ft 418 kts 117°
2026-04-26 17:42 17.65695 -62.57094 21404 ft 421 kts 118°
2026-04-26 17:43 17.64274 -62.54409 21964 ft 421 kts 126°
2026-04-26 17:43 17.62652 -62.51844 22518 ft 423 kts 129°
2026-04-26 17:43 17.60934 -62.49330 23061 ft 426 kts 130°
2026-04-26 17:43 17.59168 -62.46829 23597 ft 428 kts 131°
2026-04-26 17:44 17.57376 -62.44312 24028 ft 432 kts 131°
2026-04-26 17:44 17.55572 -62.41766 24428 ft 436 kts 130°
2026-04-26 17:44 17.53784 -62.39223 24866 ft 440 kts 130°
2026-04-26 17:44 17.51969 -62.36625 25269 ft 444 kts 130°
2026-04-26 17:45 17.50144 -62.34000 25670 ft 447 kts 130°
2026-04-26 17:45 17.48304 -62.31346 26067 ft 451 kts 130°
2026-04-26 17:45 17.46450 -62.28671 26480 ft 455 kts 130°
2026-04-26 17:45 17.44580 -62.25973 26858 ft 458 kts 130°
2026-04-26 17:46 17.42722 -62.23294 27241 ft 461 kts 130°
2026-04-26 17:46 17.40831 -62.20569 27602 ft 465 kts 130°
2026-04-26 17:46 17.38919 -62.17817 27976 ft 468 kts 130°
2026-04-26 17:46 17.36997 -62.15052 28337 ft 472 kts 130°
2026-04-26 17:47 17.35057 -62.12262 28677 ft 475 kts 130°
2026-04-26 17:47 17.33765 -62.10404 28917 ft 477 kts 130°
2026-04-26 17:47 17.31143 -62.06637 29425 ft 480 kts 130°
2026-04-26 17:47 17.29167 -62.03799 29747 ft 484 kts 130°
2026-04-26 17:48 17.27176 -62.00940 30056 ft 487 kts 130°
2026-04-26 17:48 17.25170 -61.98063 30340 ft 490 kts 130°
2026-04-26 17:48 17.23186 -61.95215 30642 ft 492 kts 130°
2026-04-26 17:48 17.21171 -61.92325 30980 ft 493 kts 130°
2026-04-26 17:49 17.19140 -61.89414 31271 ft 495 kts 130°
2026-04-26 17:49 17.17105 -61.86499 31566 ft 496 kts 130°
2026-04-26 17:49 17.14964 -61.83672 31835 ft 494 kts 137°
2026-04-26 17:49 17.12445 -61.81258 32143 ft 488 kts 148°
2026-04-26 17:50 17.09576 -61.79416 32537 ft 479 kts 159°
2026-04-26 17:50 17.06506 -61.78155 32905 ft 473 kts 166°
2026-04-26 17:50 17.03375 -61.77099 33010 ft 467 kts 168°
2026-04-26 17:50 17.00341 -61.76166 33019 ft 454 kts 169°
2026-04-26 17:51 16.94332 -61.74414 33019 ft 447 kts 169°
2026-04-26 17:51 16.88316 -61.72651 33019 ft 449 kts 168°
2026-04-26 17:52 16.82301 -61.70848 33014 ft 449 kts 168°
2026-04-26 17:52 16.76323 -61.69040 33012 ft 449 kts 168°
2026-04-26 17:53 16.70315 -61.67221 33021 ft 449 kts 168°
2026-04-26 17:54 16.61293 -61.64496 33021 ft 450 kts 167°
2026-04-26 17:54 16.55270 -61.62679 33018 ft 451 kts 167°
2026-04-26 17:55 16.49233 -61.60858 33019 ft 451 kts 167°
2026-04-26 17:55 16.43267 -61.59060 33021 ft 451 kts 167°
2026-04-26 17:56 16.39172 -61.57827 33019 ft 451 kts 167°
2026-04-26 17:57 16.28529 -61.54623 33019 ft 452 kts 167°
2026-04-26 17:57 16.22525 -61.52719 32869 ft 453 kts 164°
2026-04-26 17:57 16.19550 -61.51674 32476 ft 450 kts 164°
2026-04-26 17:58 16.10565 -61.48550 30519 ft 455 kts 165°
2026-04-26 17:59 16.04572 -61.46488 29401 ft 452 kts 165°
2026-04-26 17:59 16.01624 -61.45476 28871 ft 449 kts 164°
2026-04-26 17:59 15.98671 -61.44463 28329 ft 445 kts 164°
2026-04-26 17:59 15.95770 -61.43469 27814 ft 443 kts 164°
2026-04-26 18:00 15.92852 -61.42469 27275 ft 440 kts 164°
2026-04-26 18:00 15.89955 -61.41478 26742 ft 437 kts 164°
2026-04-26 18:00 15.87068 -61.40511 26214 ft 434 kts 166°
2026-04-26 18:00 15.84229 -61.39583 25693 ft 431 kts 166°
2026-04-26 18:01 15.81376 -61.38638 25174 ft 428 kts 165°
2026-04-26 18:01 15.78549 -61.37689 24638 ft 425 kts 165°
2026-04-26 18:01 15.75741 -61.36739 24111 ft 423 kts 165°
2026-04-26 18:01 15.73001 -61.35807 23588 ft 421 kts 165°
2026-04-26 18:02 15.70225 -61.34861 22994 ft 418 kts 165°
2026-04-26 18:02 15.68398 -61.34237 22706 ft 414 kts 165°
2026-04-26 18:02 15.64778 -61.33001 22363 ft 408 kts 165°
2026-04-26 18:02 15.62063 -61.32076 22108 ft 409 kts 165°
2026-04-26 18:03 15.59369 -61.31158 21869 ft 407 kts 165°
2026-04-26 18:03 15.56707 -61.30263 21622 ft 404 kts 166°
2026-04-26 18:03 15.53986 -61.29725 21182 ft 395 kts 179°
2026-04-26 18:03 15.51251 -61.29674 20660 ft 391 kts 183°
2026-04-26 18:04 15.48534 -61.29717 20164 ft 388 kts 184°
2026-04-26 18:04 15.45846 -61.29761 19595 ft 386 kts 183°
2026-04-26 18:04 15.43168 -61.29800 19097 ft 383 kts 183°
2026-04-26 18:05 15.37855 -61.29863 18074 ft 379 kts 182°
2026-04-26 18:05 15.35230 -61.29892 17553 ft 374 kts 182°
2026-04-26 18:05 15.32671 -61.29919 17069 ft 370 kts 182°
2026-04-26 18:05 15.30124 -61.29947 16590 ft 366 kts 182°
2026-04-26 18:06 15.27583 -61.29973 16108 ft 363 kts 182°
2026-04-26 18:06 15.25070 -61.29999 15633 ft 360 kts 182°
2026-04-26 18:06 15.22574 -61.30025 15158 ft 357 kts 182°
2026-04-26 18:06 15.20094 -61.30051 14674 ft 354 kts 182°
2026-04-26 18:07 15.17635 -61.30076 14212 ft 352 kts 182°
2026-04-26 18:07 15.15196 -61.30102 13721 ft 349 kts 182°
2026-04-26 18:07 15.12768 -61.30127 13218 ft 347 kts 182°
2026-04-26 18:07 15.11177 -61.30143 12906 ft 344 kts 182°
2026-04-26 18:08 15.08024 -61.30175 12286 ft 339 kts 182°
2026-04-26 18:08 15.05674 -61.30200 11824 ft 336 kts 182°
2026-04-26 18:08 15.03341 -61.30225 11369 ft 333 kts 182°
2026-04-26 18:08 15.01031 -61.30249 10914 ft 331 kts 182°
2026-04-26 18:09 14.98756 -61.30273 10518 ft 327 kts 182°
2026-04-26 18:09 14.96540 -61.30295 10375 ft 315 kts 182°
2026-04-26 18:09 14.94411 -61.30316 10246 ft 304 kts 182°
2026-04-26 18:09 14.92348 -61.30335 10135 ft 293 kts 182°
2026-04-26 18:10 14.90341 -61.30352 9999 ft 284 kts 182°
2026-04-26 18:10 14.88381 -61.30369 9741 ft 280 kts 182°
2026-04-26 18:10 14.86432 -61.30387 9392 ft 279 kts 182°
2026-04-26 18:10 14.84495 -61.30405 9051 ft 277 kts 182°
2026-04-26 18:11 14.82579 -61.30325 8675 ft 277 kts 177°
2026-04-26 18:11 14.80659 -61.30157 8332 ft 276 kts 176°
2026-04-26 18:11 14.78756 -61.29981 8001 ft 274 kts 176°
2026-04-26 18:11 14.76861 -61.29805 7671 ft 272 kts 176°
2026-04-26 18:12 14.74999 -61.29633 7340 ft 271 kts 176°
2026-04-26 18:12 14.73122 -61.29460 7009 ft 269 kts 175°
2026-04-26 18:12 14.71262 -61.29290 6689 ft 267 kts 175°
2026-04-26 18:12 14.69415 -61.29121 6352 ft 266 kts 175°
2026-04-26 18:13 14.67572 -61.28952 6004 ft 265 kts 175°
2026-04-26 18:13 14.65755 -61.28786 5670 ft 263 kts 175°
2026-04-26 18:13 14.63941 -61.28620 5339 ft 261 kts 175°
2026-04-26 18:13 14.63354 -61.28566 5231 ft 260 kts 175°
2026-04-26 18:14 14.60386 -61.28295 4699 ft 257 kts 175°
2026-04-26 18:14 14.58606 -61.28155 4354 ft 254 kts 176°
2026-04-26 18:14 14.56845 -61.28009 4036 ft 252 kts 175°
2026-04-26 18:14 14.55106 -61.27848 3707 ft 249 kts 174°
2026-04-26 18:15 14.53425 -61.27479 3372 ft 245 kts 160°
2026-04-26 18:15 14.51968 -61.26645 3052 ft 241 kts 142°
2026-04-26 18:15 14.50906 -61.25353 2787 ft 236 kts 121°
2026-04-26 18:15 14.50361 -61.23765 2458 ft 236 kts 103°
2026-04-26 18:16 14.50297 -61.22084 2194 ft 236 kts 86°
2026-04-26 18:16 14.51667 -61.19030 1992 ft 231 kts 56°
2026-04-26 18:16 14.52659 -61.17789 1986 ft 218 kts 55°
2026-04-26 18:17 14.53290 -61.17010 1978 ft 208 kts 56°
2026-04-26 18:17 14.54177 -61.15904 2008 ft 189 kts 56°
2026-04-26 18:17 14.54973 -61.14897 1987 ft 172 kts 57°
2026-04-26 18:17 14.55679 -61.13998 1996 ft 148 kts 58°
2026-04-26 18:18 14.56286 -61.13222 1966 ft 131 kts 59°
2026-04-26 18:18 14.56829 -61.12438 1951 ft 133 kts 68°
2026-04-26 18:18 14.57201 -61.11565 1873 ft 132 kts 78°
2026-04-26 18:18 14.57361 -61.10642 1696 ft 130 kts 89°
2026-04-26 18:19 14.57478 -61.09707 1510 ft 133 kts 87°
2026-04-26 18:19 14.57655 -61.08774 1361 ft 132 kts 83°
2026-04-26 18:19 14.57825 -61.07845 1171 ft 132 kts 85°
2026-04-26 18:19 14.57993 -61.06925 987 ft 128 kts 85°
2026-04-26 18:20 14.58121 -61.06016 835 ft 130 kts 88°
2026-04-26 18:20 14.58271 -61.05094 676 ft 131 kts 83°
2026-04-26 18:20 14.58449 -61.04166 481 ft 130 kts 85°
2026-04-26 18:20 14.58553 -61.03565 375 ft 128 kts 84°
2026-04-26 18:21 14.58764 -61.02366 158 ft 128 kts 85°
2026-04-26 18:21 14.58915 -61.01464 17 ft 124 kts 81°
2026-04-26 18:21 14.59014 -61.00870 15 ft 48 kts 80°
2026-04-26 18:21 14.59057 -61.00620 13 ft 33 kts 80°
2026-04-26 18:22 14.59094 -61.00394 12 ft 32 kts 79°
2026-04-26 18:22 14.59130 -61.00177 13 ft 27 kts 79°
2026-04-26 18:22 14.59164 -61.00039 14 ft 10 kts 49°
2026-04-26 18:22 14.59219 -61.00026 15 ft 10 kts
2026-04-26 18:23 14.59315 -61.00038 15 ft 15 kts 355°
2026-04-26 18:23 14.59395 -61.00055 15 ft 10 kts
2026-04-26 18:23 14.59451 -61.00037 15 ft 3 kts 22°
2026-04-26 18:23 14.59459 -61.00034 15 ft 0 kts 23°
2026-04-26 18:39 14.59458 -61.00034 18 ft 0 kts 23°